• In Belarus
  • List of Countries
  • For 7 days
  • Water Temperature
  • Weather Map
  • Weather Widgets
  • user-avatar
    Login

    Hourly Weather San Luis

    Today, 8 December, Sunday

    Time Temperature Precipitation Wind Pressure Humidity
    00:00 +21°C° 0.1 mm 3 mps 696 mmHg 45%
    01:00 +21°C° 0.1 mm 2 mps 696 mmHg 49%
    02:00 +20°C° 0.1 mm 2 mps 695 mmHg 52%
    03:00 +20°C° 0 mm 2 mps 695 mmHg 53%
    04:00 +19°C° 0 mm 2 mps 695 mmHg 53%
    05:00 +19°C° 0 mm 2 mps 695 mmHg 53%
    06:00 +21°C° 0 mm 3 mps 696 mmHg 47%
    07:00 +25°C° 0 mm 3 mps 697 mmHg 42%
    08:00 +27°C° 0 mm 4 mps 697 mmHg 36%
    09:00 +28°C° 0 mm 4 mps 697 mmHg 32%
    10:00 +30°C° 0 mm 3 mps 697 mmHg 29%
    11:00 +31°C° 0 mm 3 mps 698 mmHg 26%
    12:00 +33°C° 0 mm 3 mps 697 mmHg 24%
    13:00 +34°C° 0 mm 3 mps 697 mmHg 21%
    14:00 +35°C° 0 mm 3 mps 696 mmHg 19%
    15:00 +34°C° 0.2 mm 4 mps 696 mmHg 22%
    16:00 +33°C° 0.2 mm 6 mps 695 mmHg 26%
    17:00 +30°C° 0.2 mm 7 mps 695 mmHg 29%
    18:00 +29°C° 0 mm 6 mps 695 mmHg 30%
    19:00 +28°C° 0 mm 4 mps 695 mmHg 32%
    20:00 +27°C° 0 mm 3 mps 695 mmHg 33%
    21:00 +26°C° 0 mm 3 mps 695 mmHg 32%
    22:00 +25°C° 0 mm 2 mps 695 mmHg 31%
    23:00 +25°C° 0 mm 2 mps 696 mmHg 31%

    Tomorrow, 9 December, Monday

    Time Temperature Precipitation Wind Pressure Humidity
    00:00 +24°C° 0 mm 2 mps 695 mmHg 32%
    01:00 +24°C° 0 mm 2 mps 695 mmHg 33%
    02:00 +23°C° 0 mm 2 mps 695 mmHg 34%
    03:00 +22°C° 0 mm 3 mps 695 mmHg 35%
    04:00 +22°C° 0 mm 3 mps 695 mmHg 37%
    05:00 +22°C° 0 mm 4 mps 695 mmHg 39%
    06:00 +26°C° 0 mm 5 mps 696 mmHg 36%
    07:00 +28°C° 0 mm 6 mps 696 mmHg 33%
    08:00 +32°C° 0 mm 7 mps 697 mmHg 30%
    09:00 +33°C° 0 mm 6 mps 697 mmHg 26%
    10:00 +34°C° 0 mm 6 mps 697 mmHg 22%
    11:00 +36°C° 0 mm 5 mps 697 mmHg 18%
    12:00 +36°C° 0 mm 5 mps 697 mmHg 17%
    13:00 +37°C° 0 mm 5 mps 696 mmHg 16%
    14:00 +39°C° 0 mm 5 mps 695 mmHg 14%
    15:00 +37°C° 0 mm 5 mps 695 mmHg 15%
    16:00 +37°C° 0 mm 5 mps 694 mmHg 15%
    17:00 +37°C° 0 mm 4 mps 694 mmHg 15%
    18:00 +35°C° 0 mm 4 mps 694 mmHg 17%
    19:00 +31°C° 0 mm 3 mps 694 mmHg 20%
    20:00 +29°C° 0 mm 3 mps 694 mmHg 23%
    21:00 +29°C° 0 mm 3 mps 694 mmHg 24%
    22:00 +28°C° 0 mm 4 mps 694 mmHg 25%
    23:00 +28°C° 0 mm 5 mps 694 mmHg 27%

    Day after tomorrow, 10 December, Tuesday

    Time Temperature Precipitation Wind Pressure Humidity
    00:00 +28°C° 0 mm 5 mps 694 mmHg 28%
    01:00 +27°C° 0 mm 5 mps 694 mmHg 29%
    02:00 +27°C° 0 mm 4 mps 694 mmHg 30%
    03:00 +26°C° 0 mm 4 mps 694 mmHg 31%
    04:00 +26°C° 0 mm 4 mps 694 mmHg 33%
    05:00 +25°C° 0 mm 4 mps 695 mmHg 34%
    06:00 +27°C° 0 mm 4 mps 695 mmHg 32%
    07:00 +28°C° 0 mm 3 mps 696 mmHg 30%
    08:00 +30°C° 0 mm 3 mps 697 mmHg 28%
    09:00 +33°C° 0 mm 3 mps 697 mmHg 27%
    10:00 +34°C° 0 mm 3 mps 697 mmHg 25%
    11:00 +36°C° 0 mm 3 mps 697 mmHg 24%
    12:00 +36°C° 0 mm 3 mps 696 mmHg 23%
    13:00 +36°C° 0 mm 4 mps 696 mmHg 23%
    14:00 +37°C° 0 mm 4 mps 695 mmHg 22%
    15:00 +37°C° 0 mm 4 mps 694 mmHg 21%
    16:00 +37°C° 0 mm 4 mps 693 mmHg 19%
    17:00 +38°C° 0 mm 3 mps 693 mmHg 18%
    18:00 +36°C° 0 mm 3 mps 693 mmHg 21%
    19:00 +33°C° 0 mm 3 mps 692 mmHg 24%
    20:00 +30°C° 0 mm 3 mps 692 mmHg 27%
    21:00 +30°C° 0 mm 4 mps 692 mmHg 27%
    22:00 +30°C° 0 mm 4 mps 692 mmHg 27%
    23:00 +30°C° 0 mm 5 mps 693 mmHg 28%

    11 December, Wednesday

    Time Temperature Precipitation Wind Pressure Humidity
    00:00 +29°C° 0 mm 4 mps 692 mmHg 30%
    01:00 +28°C° 0 mm 4 mps 692 mmHg 32%
    02:00 +28°C° 0 mm 4 mps 691 mmHg 33%
    03:00 +27°C° 0 mm 4 mps 691 mmHg 35%
    04:00 +26°C° 0 mm 5 mps 692 mmHg 37%
    05:00 +25°C° 0 mm 5 mps 692 mmHg 38%
    06:00 +26°C° 0.1 mm 6 mps 692 mmHg 37%
    07:00 +26°C° 0.1 mm 6 mps 693 mmHg 35%
    08:00 +27°C° 0.1 mm 7 mps 693 mmHg 34%
    09:00 +28°C° 0.2 mm 7 mps 693 mmHg 32%
    10:00 +29°C° 0.2 mm 7 mps 694 mmHg 31%
    11:00 +30°C° 0.2 mm 7 mps 694 mmHg 30%
    12:00 +30°C° 0.3 mm 7 mps 693 mmHg 32%
    13:00 +30°C° 0.3 mm 7 mps 693 mmHg 33%
    14:00 +30°C° 0.3 mm 7 mps 693 mmHg 34%
    15:00 +32°C° 0.1 mm 7 mps 692 mmHg 31%
    16:00 +33°C° 0.1 mm 6 mps 692 mmHg 27%
    17:00 +33°C° 0.1 mm 6 mps 691 mmHg 24%
    18:00 +30°C° 0 mm 6 mps 691 mmHg 26%
    19:00 +28°C° 0 mm 5 mps 692 mmHg 29%
    20:00 +26°C° 0 mm 5 mps 692 mmHg 31%
    21:00 +26°C° 0 mm 6 mps 693 mmHg 28%
    22:00 +26°C° 0 mm 7 mps 694 mmHg 24%
    23:00 +24°C° 0 mm 8 mps 695 mmHg 21%

    12 December, Thursday

    Time Temperature Precipitation Wind Pressure Humidity
    00:00 +23°C° 0 mm 8 mps 695 mmHg 20%
    01:00 +21°C° 0 mm 8 mps 696 mmHg 18%
    02:00 +18°C° 0 mm 8 mps 696 mmHg 17%
    03:00 +17°C° 0 mm 8 mps 697 mmHg 19%
    04:00 +16°C° 0 mm 8 mps 697 mmHg 20%
    05:00 +15°C° 0 mm 7 mps 698 mmHg 22%
    06:00 +16°C° 0 mm 7 mps 699 mmHg 21%
    07:00 +17°C° 0 mm 7 mps 699 mmHg 19%
    08:00 +18°C° 0 mm 7 mps 700 mmHg 18%
    09:00 +20°C° 0 mm 7 mps 700 mmHg 17%
    10:00 +21°C° 0 mm 7 mps 700 mmHg 17%
    11:00 +23°C° 0 mm 7 mps 700 mmHg 16%
    12:00 +24°C° 0 mm 6 mps 700 mmHg 16%
    13:00 +26°C° 0 mm 6 mps 699 mmHg 16%
    14:00 +27°C° 0 mm 5 mps 699 mmHg 16%
    15:00 +27°C° 0 mm 5 mps 698 mmHg 16%
    16:00 +27°C° 0 mm 6 mps 698 mmHg 16%
    17:00 +27°C° 0 mm 6 mps 697 mmHg 16%
    18:00 +24°C° 0 mm 6 mps 697 mmHg 18%
    19:00 +22°C° 0 mm 5 mps 697 mmHg 20%
    20:00 +21°C° 0 mm 5 mps 697 mmHg 22%
    21:00 +20°C° 0 mm 5 mps 697 mmHg 22%
    22:00 +19°C° 0 mm 5 mps 697 mmHg 22%
    23:00 +19°C° 0 mm 5 mps 698 mmHg 23%

    13 December, Friday

    Time Temperature Precipitation Wind Pressure Humidity
    00:00 +17°C° 0 mm 5 mps 697 mmHg 22%
    01:00 +17°C° 0 mm 5 mps 697 mmHg 22%
    02:00 +17°C° 0 mm 6 mps 697 mmHg 22%
    03:00 +16°C° 0 mm 5 mps 697 mmHg 22%
    04:00 +17°C° 0 mm 4 mps 697 mmHg 22%
    05:00 +17°C° 0 mm 4 mps 697 mmHg 23%
    06:00 +20°C° 0 mm 4 mps 697 mmHg 21%
    07:00 +23°C° 0 mm 4 mps 698 mmHg 19%
    08:00 +27°C° 0 mm 4 mps 699 mmHg 17%
    09:00 +28°C° 0 mm 5 mps 699 mmHg 16%
    10:00 +29°C° 0 mm 6 mps 698 mmHg 15%
    11:00 +32°C° 0 mm 7 mps 698 mmHg 14%
    12:00 +32°C° 0 mm 7 mps 698 mmHg 14%
    13:00 +33°C° 0 mm 7 mps 697 mmHg 14%
    14:00 +34°C° 0 mm 7 mps 697 mmHg 14%
    15:00 +34°C° 0 mm 7 mps 696 mmHg 14%
    16:00 +34°C° 0 mm 6 mps 695 mmHg 14%
    17:00 +34°C° 0 mm 6 mps 695 mmHg 15%
    18:00 +30°C° 0 mm 5 mps 695 mmHg 17%
    19:00 +28°C° 0 mm 4 mps 695 mmHg 20%
    20:00 +26°C° 0 mm 3 mps 695 mmHg 23%
    21:00 +25°C° 0 mm 4 mps 695 mmHg 23%
    22:00 +25°C° 0 mm 4 mps 695 mmHg 23%
    23:00 +25°C° 0 mm 5 mps 695 mmHg 23%
    Show more